This is the latest recevied weather packets stored in our database for station/object OE2ATN. If no packets are shown the sender has not sent any weather packets the latest 10 day(s).
| Time | Temp. | Humidity | Pressure | Rain* | Wind** | Luminosity | Snow |
|---|---|---|---|---|---|---|---|
| 1778081731 | 19.44° C | 45% | 1010.9 hPa | 0 mm | - | - | - |
| 1778081431 | 19.44° C | 43% | 1010.9 hPa | 0 mm | - | - | - |
| 1778081132 | 19.44° C | 42% | 1010.8 hPa | 0 mm | - | - | - |
| 1778080832 | 19.44° C | 42% | 1010.8 hPa | 0 mm | - | - | - |
| 1778080531 | 19.44° C | 41% | 1010.7 hPa | 0 mm | - | - | - |
| 1778080231 | 20° C | 42% | 1010.8 hPa | 0 mm | - | - | - |
| 1778079931 | 20° C | 42% | 1010.9 hPa | 0 mm | - | - | - |
| 1778079631 | 20° C | 43% | 1010.8 hPa | 0 mm | - | - | - |
| 1778079330 | 20.56° C | 44% | 1010.9 hPa | 0 mm | - | - | - |
| 1778079031 | 20.56° C | 42% | 1011 hPa | 0 mm | - | - | - |
| 1778078730 | 21.11° C | 38% | 1011 hPa | 0 mm | - | - | - |
| 1778078430 | 21.11° C | 38% | 1010.9 hPa | 0 mm | - | - | - |
| 1778078130 | 21.11° C | 40% | 1011 hPa | 0 mm | - | - | - |
| 1778077830 | 21.11° C | 39% | 1011 hPa | 0 mm | - | - | - |
| 1778077530 | 21.11° C | 38% | 1011.1 hPa | 0 mm | - | - | - |
| 1778077231 | 21.11° C | 39% | 1011.1 hPa | 0 mm | - | - | - |
| 1778076930 | 21.11° C | 40% | 1011.2 hPa | 0 mm | - | - | - |
| 1778076630 | 21.11° C | 38% | 1011.3 hPa | 0 mm | - | - | - |
| 1778076330 | 21.11° C | 41% | 1011.5 hPa | 0 mm | - | - | - |
| 1778076029 | 21.11° C | 39% | 1011.5 hPa | 0 mm | - | - | - |
| 1778075730 | 21.11° C | 38% | 1011.5 hPa | 0 mm | - | - | - |
| 1778075431 | 21.11° C | 40% | 1011.5 hPa | 0 mm | - | - | - |
| 1778075130 | 21.67° C | 40% | 1011.5 hPa | 0 mm | - | - | - |
| 1778074830 | 21.67° C | 41% | 1011.5 hPa | 0 mm | - | - | - |
| 1778074529 | 21.11° C | 40% | 1011.3 hPa | 0 mm | - | - | - |
* Rain latest hour (hover to see other rain measurements)
** Current wind speed in m/s (hover to see current wind gust speed)